Ketchikan, AK

11:38 AM AKDT on July 22, 2017 (GMT -0800)
Ketchikan International

Weather History for PAKT - October, 2011

Change the Weather History Date:

Saturday, October 1, 2011

  Actual Average Record
Temperature  
Mean Temperature 46 °F -  
Max Temperature 54 °F 56 °F 63 °F (1987)
Min Temperature 37 °F 44 °F 30 °F (2000)
Degree Days  
Heating Degree Days 20    
Moisture  
Dew Point 39 °F    
Average Humidity 83    
Maximum Humidity 100    
Minimum Humidity 53    
Precipitation  
Precipitation 0.00 in - - ()
Sea Level Pressure  
Sea Level Pressure 29.97 in    
Wind  
Wind Speed 3 mph (WNW)    
Max Wind Speed 12 mph    
Max Gust Speed 17 mph    
Visibility 10 miles    
Events      
Averages and records for this station are not official NWS values.
T = Trace of Precipitation, MM = Missing Value Source: NWS Daily Summary

Daily Weather History Graph

Daily Weather History Graph

Search for Another Location

Airport or City:

Trip Planner

Search our weather history database for the weather conditions in past years. The results will help you decide how hot, cold, wet, or windy it might be!

Date:

Astronomy

Oct. 01, 2011 Rise Set
Actual Time 6:49 AM AKDT 6:22 PM AKDT
Civil Twilight 6:12 AM AKDT 6:58 PM AKDT
Nautical Twilight 5:30 AM AKDT 7:41 PM AKDT
Astronomical Twilight 4:45 AM AKDT 8:25 PM AKDT
Moon 1:06 PM AKDT (10/1) 8:23 PM AKDT (10/1)
Length of Visible Light 12h 46m
Length of Day
11h 33m
Waxing Crescent, 26% of the Moon is Illuminated
Oct 1
Waxing Crescent
Oct 3
First Quarter
Oct 11
Full
Oct 19
Last Quarter
Oct 26
New

Hourly Weather History & Observations

Time (AKDT) Temp. Windchill Dew Point Humidity Pressure Visibility Wind Dir Wind Speed Gust Speed Precip Events Conditions
12:53 AM 42.8 °F 40.1 °F 41.0 °F 93% 30.07 in 10.0 mi SE 4.6 mph - N/A   Scattered Clouds
1:09 AM 42.8 °F 41.1 °F 41.0 °F 93% 30.07 in 10.0 mi SE 3.5 mph - N/A   Mostly Cloudy
1:24 AM 42.8 °F 41.1 °F 41.0 °F 93% 30.07 in 10.0 mi SSE 3.5 mph - N/A   Mostly Cloudy
1:53 AM 43.0 °F - 41.0 °F 93% 30.08 in 10.0 mi Calm Calm - N/A   Overcast
2:19 AM 42.8 °F - 42.8 °F 100% 30.07 in 10.0 mi Calm Calm - N/A   Overcast
2:53 AM 43.0 °F 41.3 °F 42.1 °F 97% 30.07 in 10.0 mi SE 3.5 mph - N/A   Mostly Cloudy
3:53 AM 39.2 °F - 39.2 °F 100% 30.05 in 10.0 mi Calm Calm - N/A   Partly Cloudy
4:53 AM 39.9 °F - 39.0 °F 97% 30.04 in 10.0 mi Calm Calm - N/A   Overcast
5:53 AM 39.0 °F 36.8 °F 37.9 °F 96% 30.02 in 10.0 mi SSW 3.5 mph - N/A   Mostly Cloudy
6:53 AM 37.0 °F - 36.0 °F 96% 30.01 in 10.0 mi Calm Calm - N/A   Clear
7:53 AM 39.0 °F - 37.9 °F 96% 30.00 in 10.0 mi Calm Calm - N/A   Clear
8:53 AM 45.0 °F 43.5 °F 41.0 °F 86% 29.99 in 10.0 mi North 3.5 mph - N/A   Partly Cloudy
9:53 AM 46.9 °F - 42.1 °F 83% 29.96 in 10.0 mi NNW 11.5 mph - N/A   Clear
10:53 AM 50.0 °F - 39.0 °F 66% 29.95 in 10.0 mi NW 8.1 mph 17.3 mph N/A   Clear
11:53 AM 51.8 °F - 37.4 °F 58% 29.92 in 10.0 mi NW 8.1 mph - N/A   Clear
12:53 PM 52.0 °F - 37.9 °F 59% 29.92 in 10.0 mi NW 8.1 mph - N/A   Clear
1:53 PM 54.0 °F - 37.0 °F 53% 29.90 in 10.0 mi NW 6.9 mph - N/A   Clear
2:53 PM 53.1 °F - 37.9 °F 57% 29.89 in 10.0 mi NW 4.6 mph - N/A   Clear
3:53 PM 52.0 °F - 37.9 °F 59% 29.89 in 10.0 mi NNW 6.9 mph - N/A   Clear
4:53 PM 50.0 °F - 39.2 °F 66% 29.87 in 10.0 mi NW 3.5 mph - N/A   Clear
5:53 PM 48.0 °F - 41.0 °F 77% 29.89 in 10.0 mi Calm Calm - N/A   Clear
6:53 PM 44.1 °F 42.5 °F 39.9 °F 85% 29.90 in 10.0 mi SW 3.5 mph - N/A   Clear
7:53 PM 42.1 °F - 39.0 °F 89% 29.92 in 10.0 mi Calm Calm - N/A   Clear
8:53 PM 39.0 °F - 37.0 °F 93% 29.93 in 10.0 mi Calm Calm - N/A   Clear
9:53 PM 39.9 °F - 37.0 °F 89% 29.94 in 10.0 mi Calm Calm - N/A   Clear
10:53 PM 42.1 °F 40.2 °F 39.0 °F 89% 29.94 in 10.0 mi SE 3.5 mph - N/A   Clear
11:53 PM 42.1 °F 39.2 °F 39.0 °F 89% 29.94 in 10.0 mi SE 4.6 mph - N/A   Clear